User: anonymous   Login
Location: Azul
(36.7830°S, 59.8500°W)
Time: 09:50:04
(UTC-03:00)
Language:

AO-109 - Orbit

View from above orbital plane
View from above orbital plane
View from above satellite
View from above satellite

Ground track
Ground track

The orbit data is extracted from the following two-line orbital elements,

1 47311U 21002C   21294.89407084  .00002508  00000-0  11806-3 0  9993
2 47311  60.6849 177.7016 0040098 111.6997 248.8367 15.22198281 42110
Epoch (UTC): 21 October 2021 21:27:27
Eccentricity: 0.0040098
inclination: 60.6849°
perigee height: 471 km
apogee height: 527 km
right ascension of ascending node: 177.7016°
argument of perigee: 111.6997°
revolutions per day: 15.22198281
mean anomaly at epoch: 248.8367°
orbit number at epoch: 4211

The dashed part of the orbit path shows where the satellite is in the earth's shadow,  

DLR